Regional Weather Roundup
Issued by NWS Sterling, VA

Home | Current Version | Previous Version | Graphics & Text | Print | Product List | Glossary On
Versions: 1 2 3 4 5 6 7 8 9 10 11 12 13 14 15 16 17 18 19 20 21 22 23 24 25 26 27 28 29 30 31 32 33 34 35 36 37 38 39 40 41 42 43 44 45 46 47 48 49 50
000
ASUS41 KLWX 181510
RWRLWX

REGIONAL WEATHER ROUNDUP
NATIONAL WEATHER SERVICE BALTIMORE MD/WASHINGTON DC
1100 AM EDT SAT APR 18 2015

Note: "FAIR" indicates few or no clouds below 12,000 feet
with no significant weather and/or obstructions to visibility.
 TC=TEMPERATURE CELSIUS

 * =Non NWS site. Station does not report precipitation (e.g. rain,
    snow, etc.), thunder, or fog.

DCZ001-MDZ009-015-VAZ040>042-051-053>054-181600-
WASHINGTON METRO

CITY           SKY/WX    TMP DP  RH WIND       PRES   REMARKS
WASHINGTON NAT MOSUNNY   74  54  49 NE5       30.03F
DULLES         MOSUNNY   72  49  44 CALM      30.04S
ANDREWS AFB    SUNNY     72  55  55 N10       30.02F
FT BELVOIR     SUNNY     73  50  44 VRB5      30.03S
QUANTICO       SUNNY     69  55  60 E8        30.04S
COLLEGE PARK*  SUNNY     72  50  46 E5        30.03S
LEESBURG*      SUNNY     72  52  49 N7        30.06R
MANASSAS*      SUNNY     73  50  43 N3        30.04S
GAITHERSBURG*  SUNNY     72  48  43 NE3       30.07S

$$

MDZ006>007-011-014-181600-
BALTIMORE METRO

CITY           SKY/WX    TMP DP  RH WIND       PRES   REMARKS
BWI AIRPORT    MOSUNNY   70  50  49 E9        30.03S
MD SCIENCE CTR   N/A     72  49  44 MISG      30.06F
MARTIN STATE   MOSUNNY   72  54  53 NE3       30.05S
ANNAPOLIS      SUNNY     67  49  52 E9        30.03S
FORT MEADE*    SUNNY     70  50  49 NE8       30.06S

$$

MDZ012-015-019>023-181600-
MARYLAND EASTERN SHORE

CITY           SKY/WX    TMP DP  RH WIND       PRES   REMARKS
OCEAN CITY     MOSUNNY   67  50  54 NE9       30.02R
SALISBURY      SUNNY     71  60  68 E7        30.01R
BAY BRIDGE AP*   N/A     63  54  72 N6        30.04R
CAMBRIDGE*     SUNNY     72  59  64 N5        30.02R
EASTON*        MOSUNNY   73  57  56 NE10      30.06

$$

MDZ017>025-181600-
SOUTHERN MARYLAND

CITY           SKY/WX    TMP DP  RH WIND       PRES   REMARKS
PATUXENT RIVER MOSUNNY   70  53  54 NE7       30.02S
ST INIGOES     SUNNY     73  52  47 VRB3      30.01S
LEONARDTOWN*     N/A     70  50  49 N3        30.04R VSB 1

$$

MDZ003>005-181600-
NORTH CENTRAL MARYLAND

CITY           SKY/WX    TMP DP  RH WIND       PRES   REMARKS
FREDERICK*     SUNNY     73  43  33 CALM      30.07S
HAGERSTOWN APT SUNNY     70  44  39 CALM      30.05S
WESTMINSTER*   SUNNY     68  45  42 CALM      30.05S

$$

MDZ501>502-181600-
WESTERN MARYLAND

CITY           SKY/WX    TMP DP  RH WIND       PRES   REMARKS
OAKLAND*       SUNNY     63  37  39 NE3       30.11S
CUMBERLAND*    SUNNY     66  54  63 SW3       30.11S

$$

VAZ025>031-181600-
SHENANDOAH VALLEY

CITY           SKY/WX    TMP DP  RH WIND       PRES   REMARKS
WINCHESTER*    SUNNY     72  41  33 NW5       30.05S
FRONT ROYAL*   NOT AVBL
LURAY*         NOT AVBL
NEW MARKET*    NOT AVBL
STAUNTON*      SUNNY     68  56  64 E3        30.08S
WAYNESBORO*    FAIR      67  55  66 N3        30.07S

$$

WVZ021-048>050-054>055-181600-
EASTERN WEST VIRGINIA PANHANDLE

CITY           SKY/WX    TMP DP  RH WIND       PRES   REMARKS
MARTINSBURG    SUNNY     70  48  45 CALM      30.06S
PETERSBURG*    SUNNY     69  53  57 CALM      30.07F

$$

VAZ036>039-050-181600-
CENTRAL FOOTHILLS

CITY           SKY/WX    TMP DP  RH WIND       PRES   REMARKS
CHARLOTTESVILL SUNNY     72  56  57 VRB3      30.04S
CULPEPER*      SUNNY     73  52  46 N5        30.04S
ORANGE*        SUNNY     72  52  49 NW7       30.06S
GORDONSVILLE*  FAIR      72  53  52 NE7       30.04S
WARRENTON*     FAIR      73  53  49 NE5       30.04S

$$

VAZ055>057-181600-
NORTH AND CENTRAL PIEDMONT

CITY           SKY/WX    TMP DP  RH WIND       PRES   REMARKS
FREDERICKSBRG* SUNNY     74  51  44 NE3       30.02F
STAFFORD*      SUNNY     73  45  37 CALM      30.07F

$$

NCZ024-NYZ072-PAZ021-071-VAZ022-071-181600-
OTHER REGIONAL OBSERVATIONS

CITY           SKY/WX    TMP DP  RH WIND       PRES   REMARKS
NEW YORK CITY  SUNNY     71  42  35 VRB6      30.01F
PHILADELPHIA   PTSUNNY   70  48  45 S6        30.02F
PITTSBURGH     MOSUNNY   70  44  39 W6        30.07S
ROANOKE        MOSUNNY   72  54  53 CALM      30.08R
RICHMOND       MOSUNNY   75  55  49 VRB5      30.03R
RALEIGH        PTSUNNY   72  63  73 NE5       30.02R

$$

ANZ530>537-181600-
MARINE OBSERVATIONS

STATION/POSITION TIME  TEMP    WIND        PRES
                       AIR SEA DIR/SP/G
                 (UTC) (F)     (DEG/KT/KT) (MB)
THOMAS PT LIGHT  1500   61 54   10/  7/  7 1017.6S
BALT KEY BRIDGE  1400   66      CALM  /  1 1017.0S
COVE POINT       1400   61     340/ 11/ 12 1016.4S
LEWISETTA        1400   67 59              1016.4R
SOLOMONS ISLAND  1400      55                N/A
PINEY POINT      1406           40/  4/  6   N/A

$$




USA.gov is the U.S. government's official web portal to all federal, state and local government web resources and services.